Year,Month,Day,Hour,Minute,Value (Times are PST for windspeed in km/hr)
2007,12,29,00,00,2.80
2007,12,29,00,01,2.30
2007,12,29,00,02,1.90
2007,12,29,00,03,0.10
2007,12,29,00,04,0.30
2007,12,29,00,05,0.00
2007,12,29,00,06,1.00
2007,12,29,00,07,2.40
2007,12,29,00,08,2.50
2007,12,29,00,09,0.30
2007,12,29,00,10,0.00
2007,12,29,00,11,1.30
2007,12,29,00,12,0.60
2007,12,29,00,13,0.00
2007,12,29,00,14,0.00
2007,12,29,00,15,0.60
2007,12,29,00,16,0.60
2007,12,29,00,17,0.00
2007,12,29,00,18,0.00
2007,12,29,00,19,0.20
2007,12,29,00,20,0.00
2007,12,29,00,21,1.30
2007,12,29,00,22,1.00
2007,12,29,00,23,0.10
2007,12,29,00,24,0.00
2007,12,29,00,25,0.70
2007,12,29,00,26,1.00
2007,12,29,00,27,0.50
2007,12,29,00,28,0.90
2007,12,29,00,29,0.00
2007,12,29,00,30,0.00
2007,12,29,00,31,0.00
2007,12,29,00,32,0.10
2007,12,29,00,33,0.00
2007,12,29,00,34,0.00
2007,12,29,00,35,0.00
2007,12,29,00,36,0.60
2007,12,29,00,37,1.10
2007,12,29,00,38,2.40
2007,12,29,00,39,2.00
2007,12,29,00,40,1.10
2007,12,29,00,41,1.20
2007,12,29,00,42,1.50
2007,12,29,00,43,1.60
2007,12,29,00,44,2.00
2007,12,29,00,45,0.80
2007,12,29,00,46,0.20
2007,12,29,00,47,1.00
2007,12,29,00,48,0.10
2007,12,29,00,49,0.90
2007,12,29,00,50,1.50
2007,12,29,00,51,1.40
2007,12,29,00,52,0.20
2007,12,29,00,53,0.00
2007,12,29,00,54,0.00
2007,12,29,00,55,1.70
2007,12,29,00,56,0.80
2007,12,29,00,57,0.00
2007,12,29,00,58,0.00
2007,12,29,00,59,0.00
2007,12,29,01,00,0.00
2007,12,29,01,01,0.20
2007,12,29,01,02,2.40
2007,12,29,01,03,0.80
2007,12,29,01,04,0.00
2007,12,29,01,05,0.00
2007,12,29,01,06,0.00
2007,12,29,01,07,0.00
2007,12,29,01,08,0.00
2007,12,29,01,09,0.00
2007,12,29,01,10,0.00
2007,12,29,01,11,0.50
2007,12,29,01,12,0.40
2007,12,29,01,13,0.00
2007,12,29,01,14,0.20
2007,12,29,01,15,0.00
2007,12,29,01,16,0.40
2007,12,29,01,17,0.00
2007,12,29,01,18,0.00
2007,12,29,01,19,0.00
2007,12,29,01,20,0.00
2007,12,29,01,21,0.00
2007,12,29,01,22,0.00
2007,12,29,01,23,0.30
2007,12,29,01,24,0.70
2007,12,29,01,25,1.50
2007,12,29,01,26,2.30
2007,12,29,01,27,2.20
2007,12,29,01,28,1.30
2007,12,29,01,29,0.60
2007,12,29,01,30,1.90
2007,12,29,01,31,0.50
2007,12,29,01,32,0.30
2007,12,29,01,33,0.10
2007,12,29,01,34,0.20
2007,12,29,01,35,2.20
2007,12,29,01,36,0.30
2007,12,29,01,37,0.00
2007,12,29,01,38,0.00
2007,12,29,01,39,0.00
2007,12,29,01,40,0.00
2007,12,29,01,41,0.00
2007,12,29,01,42,0.00
2007,12,29,01,43,0.00
2007,12,29,01,44,0.00
2007,12,29,01,45,0.10
2007,12,29,01,46,0.10
2007,12,29,01,47,0.90
2007,12,29,01,48,1.50
2007,12,29,01,49,0.60
2007,12,29,01,50,0.60
2007,12,29,01,51,0.10
2007,12,29,01,52,1.50
2007,12,29,01,53,0.70
2007,12,29,01,54,0.30
2007,12,29,01,55,0.00
2007,12,29,01,56,0.60
2007,12,29,01,57,0.60
2007,12,29,01,58,0.00
2007,12,29,01,59,0.10
2007,12,29,02,00,2.30
2007,12,29,02,01,5.20
2007,12,29,02,02,3.00
2007,12,29,02,03,2.60
2007,12,29,02,04,0.90
2007,12,29,02,05,1.80
2007,12,29,02,06,1.40
2007,12,29,02,07,0.20
2007,12,29,02,08,0.80
2007,12,29,02,09,1.90
2007,12,29,02,10,2.90
2007,12,29,02,11,3.00
2007,12,29,02,12,3.10
2007,12,29,02,13,0.80
2007,12,29,02,14,1.20
2007,12,29,02,15,0.30
2007,12,29,02,16,1.30
2007,12,29,02,17,3.20
2007,12,29,02,18,2.80
2007,12,29,02,19,3.90
2007,12,29,02,20,3.10
2007,12,29,02,21,2.60
2007,12,29,02,22,3.10
2007,12,29,02,23,0.70
2007,12,29,02,24,2.90
2007,12,29,02,25,5.70
2007,12,29,02,26,2.80
2007,12,29,02,27,4.20
2007,12,29,02,28,3.50
2007,12,29,02,29,3.40
2007,12,29,02,30,1.90
2007,12,29,02,31,1.70
2007,12,29,02,32,2.60
2007,12,29,02,33,2.60
2007,12,29,02,34,4.30
2007,12,29,02,35,3.30
2007,12,29,02,36,2.80
2007,12,29,02,37,5.50
2007,12,29,02,38,3.90
2007,12,29,02,39,4.10
2007,12,29,02,40,9.70
2007,12,29,02,41,2.70
2007,12,29,02,42,2.10
2007,12,29,02,43,1.00
2007,12,29,02,44,5.20
2007,12,29,02,45,5.60
2007,12,29,02,46,6.30
2007,12,29,02,47,2.70
2007,12,29,02,48,2.90
2007,12,29,02,49,4.80
2007,12,29,02,50,2.00
2007,12,29,02,51,3.50
2007,12,29,02,52,2.40
2007,12,29,02,53,2.60
2007,12,29,02,54,3.90
2007,12,29,02,55,2.00
2007,12,29,02,56,3.30
2007,12,29,02,57,4.90
2007,12,29,02,58,1.30
2007,12,29,02,59,0.30
2007,12,29,03,00,1.40
2007,12,29,03,01,2.00
2007,12,29,03,02,2.30
2007,12,29,03,03,1.80
2007,12,29,03,04,1.60
2007,12,29,03,05,0.90
2007,12,29,03,06,0.10
2007,12,29,03,07,0.00
2007,12,29,03,08,0.00
2007,12,29,03,09,2.30
2007,12,29,03,10,1.50
2007,12,29,03,11,1.10
2007,12,29,03,12,1.00
2007,12,29,03,13,0.00
2007,12,29,03,14,0.00
2007,12,29,03,15,1.30
2007,12,29,03,16,1.60
2007,12,29,03,17,2.00
2007,12,29,03,18,0.20
2007,12,29,03,19,0.00
2007,12,29,03,20,0.00
2007,12,29,03,21,1.80
2007,12,29,03,22,0.90
2007,12,29,03,23,0.40
2007,12,29,03,24,0.20
2007,12,29,03,25,0.60
2007,12,29,03,26,2.80
2007,12,29,03,27,3.00
2007,12,29,03,28,5.30
2007,12,29,03,29,2.60
2007,12,29,03,30,2.30
2007,12,29,03,31,4.30
2007,12,29,03,32,3.10
2007,12,29,03,33,2.90
2007,12,29,03,34,4.90
2007,12,29,03,35,3.40
2007,12,29,03,36,1.00
2007,12,29,03,37,1.80
2007,12,29,03,38,8.00
2007,12,29,03,39,6.00
2007,12,29,03,40,6.40
2007,12,29,03,41,6.80
2007,12,29,03,42,11.00
2007,12,29,03,43,9.40
2007,12,29,03,44,6.80
2007,12,29,03,45,5.90
2007,12,29,03,46,8.50
2007,12,29,03,47,8.60
2007,12,29,03,48,3.90
2007,12,29,03,49,2.10
2007,12,29,03,50,5.00
2007,12,29,03,51,6.50
2007,12,29,03,52,8.40
2007,12,29,03,53,5.30
2007,12,29,03,54,5.80
2007,12,29,03,55,2.30
2007,12,29,03,56,1.40
2007,12,29,03,57,4.00
2007,12,29,03,58,1.80
2007,12,29,03,59,5.60
2007,12,29,04,00,1.10
2007,12,29,04,01,1.10
2007,12,29,04,02,1.70
2007,12,29,04,03,5.30
2007,12,29,04,04,4.80
2007,12,29,04,06,0.80
2007,12,29,04,07,1.80
2007,12,29,04,08,1.10
2007,12,29,04,15,2.60
2007,12,29,04,16,1.30
2007,12,29,04,17,1.40
2007,12,29,04,18,0.90
2007,12,29,04,19,1.90
2007,12,29,04,20,2.70
2007,12,29,04,21,2.70
2007,12,29,04,22,1.10
2007,12,29,04,23,6.30
2007,12,29,04,24,8.60
2007,12,29,04,25,4.50
2007,12,29,04,26,1.90
2007,12,29,04,27,1.20
2007,12,29,04,28,3.80
2007,12,29,04,29,2.70
2007,12,29,04,30,7.80
2007,12,29,04,31,4.50
2007,12,29,04,32,5.40
2007,12,29,04,33,5.10
2007,12,29,04,34,4.90
2007,12,29,04,35,7.50
2007,12,29,04,36,8.60
2007,12,29,04,37,6.40
2007,12,29,04,38,4.30
2007,12,29,04,39,3.60
2007,12,29,04,40,3.80
2007,12,29,04,41,0.60
2007,12,29,04,42,3.90
2007,12,29,04,43,4.70
2007,12,29,04,44,2.30
2007,12,29,04,45,1.40
2007,12,29,04,46,3.80
2007,12,29,04,47,2.40
2007,12,29,04,48,1.50
2007,12,29,04,49,1.90
2007,12,29,04,50,3.10
2007,12,29,04,51,3.10
2007,12,29,04,52,2.60
2007,12,29,04,53,2.60
2007,12,29,04,54,3.40
2007,12,29,04,55,3.10
2007,12,29,04,56,2.60
2007,12,29,04,57,3.20
2007,12,29,04,58,4.10
2007,12,29,04,59,3.50
2007,12,29,05,00,2.60
2007,12,29,05,01,0.00
2007,12,29,05,02,0.80
2007,12,29,05,03,0.00
2007,12,29,05,04,0.00
2007,12,29,05,05,0.20
2007,12,29,05,06,3.00
2007,12,29,05,07,2.40
2007,12,29,05,08,1.80
2007,12,29,05,09,0.00
2007,12,29,05,10,1.00
2007,12,29,05,11,0.70
2007,12,29,05,12,0.90
2007,12,29,05,13,1.00
2007,12,29,05,14,1.10
2007,12,29,05,15,0.10
2007,12,29,05,16,0.10
2007,12,29,05,17,0.10
2007,12,29,05,18,0.00
2007,12,29,05,19,0.00
2007,12,29,05,20,0.00
2007,12,29,05,21,0.00
2007,12,29,05,22,0.00
2007,12,29,05,23,0.00
2007,12,29,05,24,0.00
2007,12,29,05,25,0.00
2007,12,29,05,26,0.00
2007,12,29,05,27,0.60
2007,12,29,05,28,0.70
2007,12,29,05,29,2.30
2007,12,29,05,30,3.40
2007,12,29,05,31,0.20
2007,12,29,05,32,0.00
2007,12,29,05,33,0.20
2007,12,29,05,34,0.00
2007,12,29,05,35,0.00
2007,12,29,05,36,0.00
2007,12,29,05,37,0.00
2007,12,29,05,38,0.20
2007,12,29,05,39,3.60
2007,12,29,05,40,3.40
2007,12,29,05,41,4.70
2007,12,29,05,42,2.90
2007,12,29,05,43,0.30
2007,12,29,05,44,1.50
2007,12,29,05,45,1.30
2007,12,29,05,46,0.00
2007,12,29,05,47,1.10
2007,12,29,05,48,2.60
2007,12,29,05,49,3.00
2007,12,29,05,50,1.40
2007,12,29,05,51,0.30
2007,12,29,05,52,2.20
2007,12,29,05,53,0.20
2007,12,29,05,54,0.00
2007,12,29,05,55,0.00
2007,12,29,05,56,0.00
2007,12,29,05,57,0.00
2007,12,29,05,58,0.00
2007,12,29,05,59,0.00
2007,12,29,06,00,0.00
2007,12,29,06,01,0.90
2007,12,29,06,02,2.00
2007,12,29,06,03,0.40
2007,12,29,06,04,0.20
2007,12,29,06,05,0.00
2007,12,29,06,06,0.00
2007,12,29,06,07,0.20
2007,12,29,06,08,1.40
2007,12,29,06,09,0.40
2007,12,29,06,10,0.70
2007,12,29,06,11,0.60
2007,12,29,06,12,0.20
2007,12,29,06,13,0.10
2007,12,29,06,14,0.80
2007,12,29,06,15,0.20
2007,12,29,06,16,0.20
2007,12,29,06,17,1.60
2007,12,29,06,18,0.20
2007,12,29,06,19,0.20
2007,12,29,06,20,1.10
2007,12,29,06,21,1.10
2007,12,29,06,22,1.50
2007,12,29,06,23,1.80
2007,12,29,06,24,0.30
2007,12,29,06,25,0.50
2007,12,29,06,26,1.50
2007,12,29,06,27,1.80
2007,12,29,06,28,3.10
2007,12,29,06,29,3.10
2007,12,29,06,30,1.90
2007,12,29,06,31,0.50
2007,12,29,06,32,3.00
2007,12,29,06,33,1.00
2007,12,29,06,34,0.10
2007,12,29,06,35,1.50
2007,12,29,06,36,0.60
2007,12,29,06,37,0.00
2007,12,29,06,38,1.40
2007,12,29,06,39,2.50
2007,12,29,06,40,2.90
2007,12,29,06,41,3.00
2007,12,29,06,42,0.00
2007,12,29,06,43,0.00
2007,12,29,06,44,0.00
2007,12,29,06,45,0.10
2007,12,29,06,46,1.00
2007,12,29,06,47,0.00
2007,12,29,06,48,0.20
2007,12,29,06,49,1.70
2007,12,29,06,50,1.90
2007,12,29,06,51,1.40
2007,12,29,06,52,1.10
2007,12,29,06,53,0.20
2007,12,29,06,54,0.00
2007,12,29,06,55,0.00
2007,12,29,06,56,0.40
2007,12,29,06,57,1.90
2007,12,29,06,58,0.40
2007,12,29,06,59,0.50
2007,12,29,07,00,0.30
2007,12,29,07,01,0.10
2007,12,29,07,02,0.00
2007,12,29,07,03,0.00
2007,12,29,07,04,0.00
2007,12,29,07,05,0.50
2007,12,29,07,06,2.00
2007,12,29,07,07,1.40
2007,12,29,07,08,0.00
2007,12,29,07,09,0.40
2007,12,29,07,10,0.80
2007,12,29,07,11,1.20
2007,12,29,07,12,0.00
2007,12,29,07,13,0.00
2007,12,29,07,14,0.00
2007,12,29,07,15,0.00
2007,12,29,07,16,0.00
2007,12,29,07,17,0.00
2007,12,29,07,18,1.80
2007,12,29,07,19,1.20
2007,12,29,07,20,1.50
2007,12,29,07,21,1.30
2007,12,29,07,22,1.10
2007,12,29,07,23,0.50
2007,12,29,07,24,0.00
2007,12,29,07,25,0.00
2007,12,29,07,26,0.00
2007,12,29,07,27,0.60
2007,12,29,07,28,5.70
2007,12,29,07,29,0.50
2007,12,29,07,30,0.20
2007,12,29,07,31,0.00
2007,12,29,07,32,0.00
2007,12,29,07,33,0.00
2007,12,29,07,34,0.00
2007,12,29,07,35,1.20
2007,12,29,07,36,0.00
2007,12,29,07,37,0.00
2007,12,29,07,38,0.00
2007,12,29,07,39,0.00
2007,12,29,07,40,0.00
2007,12,29,07,41,0.00
2007,12,29,07,42,0.50
2007,12,29,07,43,2.50
2007,12,29,07,44,0.10
2007,12,29,07,45,0.10
2007,12,29,07,46,0.10
2007,12,29,07,47,0.00
2007,12,29,07,48,0.10
2007,12,29,07,49,0.20
2007,12,29,07,50,0.80
2007,12,29,07,51,0.20
2007,12,29,07,52,0.60
2007,12,29,07,53,0.20
2007,12,29,07,54,0.80
2007,12,29,07,55,1.80
2007,12,29,07,56,0.20
2007,12,29,07,57,0.00
2007,12,29,07,58,0.00
2007,12,29,07,59,0.10
2007,12,29,08,00,0.20
2007,12,29,08,01,0.80
2007,12,29,08,02,0.70
2007,12,29,08,03,0.10
2007,12,29,08,04,0.10
2007,12,29,08,05,0.00
2007,12,29,08,06,0.00
2007,12,29,08,07,0.00
2007,12,29,08,08,0.00
2007,12,29,08,09,0.00
2007,12,29,08,10,0.20
2007,12,29,08,11,0.00
2007,12,29,08,12,0.20
2007,12,29,08,13,0.30
2007,12,29,08,14,0.90
2007,12,29,08,15,2.10
2007,12,29,08,16,2.80
2007,12,29,08,17,2.30
2007,12,29,08,18,0.70
2007,12,29,08,19,0.00
2007,12,29,08,20,0.00
2007,12,29,08,21,0.10
2007,12,29,08,22,0.30
2007,12,29,08,23,0.10
2007,12,29,08,24,0.10
2007,12,29,08,25,0.00
2007,12,29,08,26,0.00
2007,12,29,08,27,0.00
2007,12,29,08,28,0.10
2007,12,29,08,29,0.00
2007,12,29,08,30,0.00
2007,12,29,08,31,0.10
2007,12,29,08,32,0.20
2007,12,29,08,33,0.00
2007,12,29,08,34,0.00
2007,12,29,08,35,0.00
2007,12,29,08,36,0.00
2007,12,29,08,37,0.40
2007,12,29,08,38,0.30
2007,12,29,08,39,0.00
2007,12,29,08,40,0.20
2007,12,29,08,41,0.40
2007,12,29,08,42,1.00
2007,12,29,08,43,0.10
2007,12,29,08,44,0.30
2007,12,29,08,45,0.10
2007,12,29,08,46,0.00
2007,12,29,08,47,0.00
2007,12,29,08,48,0.00
2007,12,29,08,49,0.00
2007,12,29,08,50,0.20
2007,12,29,08,51,2.20
2007,12,29,08,52,1.20
2007,12,29,08,53,0.60
2007,12,29,08,54,0.80
2007,12,29,08,55,0.50
2007,12,29,08,56,0.00
2007,12,29,08,57,1.50
2007,12,29,08,58,0.40
2007,12,29,08,59,0.80
2007,12,29,09,00,1.10
2007,12,29,09,01,1.10
2007,12,29,09,02,1.40
2007,12,29,09,03,1.60
2007,12,29,09,04,1.80
2007,12,29,09,05,1.10
2007,12,29,09,06,2.60
2007,12,29,09,07,2.20
2007,12,29,09,08,1.80
2007,12,29,09,09,0.50
2007,12,29,09,10,0.10
2007,12,29,09,11,0.00
2007,12,29,09,12,0.50
2007,12,29,09,13,1.80
2007,12,29,09,14,2.00
2007,12,29,09,15,3.00
2007,12,29,09,16,0.40
2007,12,29,09,17,0.00
2007,12,29,09,18,0.00
2007,12,29,09,19,0.70
2007,12,29,09,20,2.50
2007,12,29,09,21,2.10
2007,12,29,09,22,2.50
2007,12,29,09,23,2.20
2007,12,29,09,24,1.50
2007,12,29,09,25,0.00
2007,12,29,09,26,0.00
2007,12,29,09,27,0.00
2007,12,29,09,28,0.00
2007,12,29,09,29,0.00
2007,12,29,09,30,0.00
2007,12,29,09,31,0.00
2007,12,29,09,32,0.00
2007,12,29,09,33,0.00
2007,12,29,09,34,0.00
2007,12,29,09,35,0.00
2007,12,29,09,36,0.00
2007,12,29,09,37,0.00
2007,12,29,09,38,0.00
2007,12,29,09,39,0.00
2007,12,29,09,40,0.00
2007,12,29,09,41,0.00
2007,12,29,09,42,0.00
2007,12,29,09,43,0.00
2007,12,29,09,44,0.00
2007,12,29,09,45,0.00
2007,12,29,09,46,0.00
2007,12,29,09,47,0.00
2007,12,29,09,48,0.00
2007,12,29,09,49,0.20
2007,12,29,09,50,0.10
2007,12,29,09,51,0.00
2007,12,29,09,52,0.00
2007,12,29,09,53,0.00
2007,12,29,09,54,0.00
2007,12,29,09,55,0.00
2007,12,29,09,56,0.00
2007,12,29,09,57,0.00
2007,12,29,09,58,0.00
2007,12,29,09,59,0.10
2007,12,29,10,00,0.00
2007,12,29,10,01,0.00
2007,12,29,10,02,0.00
2007,12,29,10,03,0.00
2007,12,29,10,04,0.00
2007,12,29,10,05,0.00
2007,12,29,10,06,0.00
2007,12,29,10,07,0.10
2007,12,29,10,08,0.00
2007,12,29,10,09,0.00
2007,12,29,10,10,0.00
2007,12,29,10,11,0.00
2007,12,29,10,12,0.00
2007,12,29,10,13,0.00
2007,12,29,10,14,0.00
2007,12,29,10,15,0.00
2007,12,29,10,16,0.00
2007,12,29,10,17,0.00
2007,12,29,10,18,0.00
2007,12,29,10,19,0.00
2007,12,29,10,20,0.00
2007,12,29,10,21,0.00
2007,12,29,10,22,0.00
2007,12,29,10,23,0.00
2007,12,29,10,24,0.10
2007,12,29,10,25,0.50
2007,12,29,10,26,0.00
2007,12,29,10,27,0.30
2007,12,29,10,28,0.20
2007,12,29,10,29,0.00
2007,12,29,10,30,0.00
2007,12,29,10,31,0.10
2007,12,29,10,32,0.00
2007,12,29,10,33,0.00
2007,12,29,10,34,0.00
2007,12,29,10,35,0.00
2007,12,29,10,36,0.00
2007,12,29,10,37,0.00
2007,12,29,10,38,0.00
2007,12,29,10,39,0.00
2007,12,29,10,40,0.00
2007,12,29,10,41,0.00
2007,12,29,10,42,0.00
2007,12,29,10,43,0.00
2007,12,29,10,44,0.00
2007,12,29,10,45,0.00
2007,12,29,10,46,0.00
2007,12,29,10,47,0.00
2007,12,29,10,48,0.00
2007,12,29,10,49,0.00
2007,12,29,10,50,0.00
2007,12,29,10,51,0.00
2007,12,29,10,52,0.20
2007,12,29,10,53,0.00
2007,12,29,10,54,0.00
2007,12,29,10,55,0.00
2007,12,29,10,56,0.00
2007,12,29,10,57,0.20
2007,12,29,10,58,0.20
2007,12,29,10,59,0.20
2007,12,29,11,00,0.50
2007,12,29,11,01,0.00
2007,12,29,11,02,0.00
2007,12,29,11,03,0.10
2007,12,29,11,04,0.00
2007,12,29,11,05,0.00
2007,12,29,11,06,1.50
2007,12,29,11,07,2.60
2007,12,29,11,08,1.90
2007,12,29,11,09,3.80
2007,12,29,11,10,1.20
2007,12,29,11,11,0.70
2007,12,29,11,12,4.70
2007,12,29,11,13,3.60
2007,12,29,11,14,5.30
2007,12,29,11,15,5.70
2007,12,29,11,16,4.60
2007,12,29,11,17,4.80
2007,12,29,11,18,5.20
2007,12,29,11,19,7.10
2007,12,29,11,20,7.80
2007,12,29,11,21,6.80
2007,12,29,11,22,9.30
2007,12,29,11,23,5.90
2007,12,29,11,24,7.80
2007,12,29,11,25,9.70
2007,12,29,11,26,11.60
2007,12,29,11,27,10.30
2007,12,29,11,28,8.50
2007,12,29,11,29,7.30
2007,12,29,11,30,8.20
2007,12,29,11,31,7.00
2007,12,29,11,32,9.00
2007,12,29,11,33,10.20
2007,12,29,11,34,8.60
2007,12,29,11,35,9.20
2007,12,29,11,36,7.80
2007,12,29,11,37,8.50
2007,12,29,11,38,9.30
2007,12,29,11,39,6.90
2007,12,29,11,40,6.00
2007,12,29,11,41,9.30
2007,12,29,11,42,8.80
2007,12,29,11,43,10.10
2007,12,29,11,44,7.20
2007,12,29,11,45,8.30
2007,12,29,11,46,11.70
2007,12,29,11,47,11.10
2007,12,29,11,48,10.50
2007,12,29,11,49,13.60
2007,12,29,11,50,8.50
2007,12,29,11,51,10.00
2007,12,29,11,52,6.90
2007,12,29,11,53,9.70
2007,12,29,11,54,9.30
2007,12,29,11,55,10.50
2007,12,29,11,56,8.00
2007,12,29,11,57,6.50
2007,12,29,11,58,8.50
2007,12,29,11,59,11.10
2007,12,29,12,00,7.30
2007,12,29,12,01,7.10
2007,12,29,12,02,8.20
2007,12,29,12,03,7.00
2007,12,29,12,04,5.80
2007,12,29,12,05,6.40
2007,12,29,12,06,6.90
2007,12,29,12,07,8.00
2007,12,29,12,08,8.90
2007,12,29,12,09,7.40
2007,12,29,12,10,7.40
2007,12,29,12,11,10.00
2007,12,29,12,12,11.00
2007,12,29,12,13,10.10
2007,12,29,12,14,6.00
2007,12,29,12,15,6.50
2007,12,29,12,16,7.00
2007,12,29,12,17,6.80
2007,12,29,12,18,8.10
2007,12,29,12,19,11.70
2007,12,29,12,20,11.80
2007,12,29,12,21,8.70
2007,12,29,12,22,11.10
2007,12,29,12,23,11.10
2007,12,29,12,24,8.30
2007,12,29,12,25,10.00
2007,12,29,12,26,11.40
2007,12,29,12,27,11.80
2007,12,29,12,28,11.00
2007,12,29,12,29,11.40
2007,12,29,12,30,12.20
2007,12,29,12,31,17.40
2007,12,29,12,32,16.20
2007,12,29,12,33,11.30
2007,12,29,12,34,15.10
2007,12,29,12,35,13.80
2007,12,29,12,36,13.00
2007,12,29,12,37,16.30
2007,12,29,12,38,17.10
2007,12,29,12,39,16.80
2007,12,29,12,40,20.60
2007,12,29,12,41,13.40
2007,12,29,12,42,13.70
2007,12,29,12,43,17.50
2007,12,29,12,44,16.40
2007,12,29,12,45,15.60
2007,12,29,12,46,14.60
2007,12,29,12,47,16.10
2007,12,29,12,48,13.90
2007,12,29,12,49,16.00
2007,12,29,12,50,16.00
2007,12,29,12,51,12.20
2007,12,29,12,52,14.00
2007,12,29,12,53,9.30
2007,12,29,12,54,8.60
2007,12,29,12,55,8.10
2007,12,29,12,56,6.30
2007,12,29,12,57,14.60
2007,12,29,12,58,10.40
2007,12,29,12,59,9.30
2007,12,29,13,00,10.50
2007,12,29,13,01,15.30
2007,12,29,13,02,18.30
2007,12,29,13,03,11.80
2007,12,29,13,04,7.70
2007,12,29,13,05,13.30
2007,12,29,13,06,14.40
2007,12,29,13,07,10.10
2007,12,29,13,08,9.90
2007,12,29,13,09,9.40
2007,12,29,13,10,9.00
2007,12,29,13,11,11.00
2007,12,29,13,12,15.00
2007,12,29,13,13,13.50
2007,12,29,13,14,10.20
2007,12,29,13,15,10.90
2007,12,29,13,16,11.60
2007,12,29,13,17,12.90
2007,12,29,13,18,16.90
2007,12,29,13,19,14.80
2007,12,29,13,20,13.80
2007,12,29,13,21,10.90
2007,12,29,13,22,8.80
2007,12,29,13,23,14.50
2007,12,29,13,24,18.90
2007,12,29,13,25,14.00
2007,12,29,13,26,9.10
2007,12,29,13,27,15.80
2007,12,29,13,28,13.80
2007,12,29,13,29,11.40
2007,12,29,13,30,9.50
2007,12,29,13,31,10.00
2007,12,29,13,32,8.90
2007,12,29,13,33,14.30
2007,12,29,13,34,13.00
2007,12,29,13,35,9.20
2007,12,29,13,36,14.60
2007,12,29,13,37,12.00
2007,12,29,13,38,12.30
2007,12,29,13,39,10.10
2007,12,29,13,40,14.40
2007,12,29,13,41,16.10
2007,12,29,13,42,12.30
2007,12,29,13,43,8.90
2007,12,29,13,44,10.80
2007,12,29,13,45,13.30
2007,12,29,13,46,11.00
2007,12,29,13,47,14.10
2007,12,29,13,48,12.30
2007,12,29,13,49,14.50
2007,12,29,13,50,13.90
2007,12,29,13,51,15.10
2007,12,29,13,52,8.90
2007,12,29,13,53,8.90
2007,12,29,13,54,9.90
2007,12,29,13,55,17.30
2007,12,29,13,56,14.50
2007,12,29,13,57,11.70
2007,12,29,13,58,15.70
2007,12,29,13,59,16.40
2007,12,29,14,00,16.10
2007,12,29,14,01,15.30
2007,12,29,14,02,17.10
2007,12,29,14,03,11.40
2007,12,29,14,04,14.00
2007,12,29,14,05,14.20
2007,12,29,14,06,12.00
2007,12,29,14,07,12.70
2007,12,29,14,08,13.00
2007,12,29,14,09,13.80
2007,12,29,14,10,11.30
2007,12,29,14,11,13.30
2007,12,29,14,12,9.00
2007,12,29,14,13,9.50
2007,12,29,14,14,12.30
2007,12,29,14,15,10.70
2007,12,29,14,16,11.40
2007,12,29,14,17,10.60
2007,12,29,14,18,11.20
2007,12,29,14,19,7.80
2007,12,29,14,20,11.90
2007,12,29,14,21,13.70
2007,12,29,14,22,9.30
2007,12,29,14,23,13.60
2007,12,29,14,24,13.60
2007,12,29,14,25,12.20
2007,12,29,14,26,10.80
2007,12,29,14,27,13.20
2007,12,29,14,28,10.50
2007,12,29,14,29,13.00
2007,12,29,14,30,12.20
2007,12,29,14,31,13.20
2007,12,29,14,32,12.80
2007,12,29,14,33,16.50
2007,12,29,14,34,12.00
2007,12,29,14,35,17.60
2007,12,29,14,36,17.10
2007,12,29,14,37,14.20
2007,12,29,14,38,17.60
2007,12,29,14,39,10.90
2007,12,29,14,40,17.20
2007,12,29,14,41,12.70
2007,12,29,14,42,12.90
2007,12,29,14,43,11.70
2007,12,29,14,44,12.60
2007,12,29,14,45,13.30
2007,12,29,14,46,13.40
2007,12,29,14,47,12.10
2007,12,29,14,48,7.00
2007,12,29,14,49,10.30
2007,12,29,14,50,10.00
2007,12,29,14,51,11.50
2007,12,29,14,52,10.70
2007,12,29,14,53,14.60
2007,12,29,14,54,11.30
2007,12,29,14,55,11.50
2007,12,29,14,56,10.10
2007,12,29,14,57,10.00
2007,12,29,14,58,13.60
2007,12,29,14,59,10.90
2007,12,29,15,00,7.70
2007,12,29,15,01,10.20
2007,12,29,15,02,10.30
2007,12,29,15,03,10.20
2007,12,29,15,04,12.70
2007,12,29,15,05,12.50
2007,12,29,15,06,9.10
2007,12,29,15,07,7.70
2007,12,29,15,08,8.40
2007,12,29,15,09,11.40
2007,12,29,15,10,14.60
2007,12,29,15,11,18.50
2007,12,29,15,12,12.80
2007,12,29,15,13,13.90
2007,12,29,15,14,18.80
2007,12,29,15,15,13.20
2007,12,29,15,16,14.70
2007,12,29,15,17,15.80
2007,12,29,15,18,14.30
2007,12,29,15,19,15.50
2007,12,29,15,20,13.30
2007,12,29,15,21,13.90
2007,12,29,15,22,9.60
2007,12,29,15,23,9.40
2007,12,29,15,24,9.40
2007,12,29,15,25,9.30
2007,12,29,15,26,8.00
2007,12,29,15,27,9.30
2007,12,29,15,28,8.20
2007,12,29,15,29,12.90
2007,12,29,15,30,10.40
2007,12,29,15,31,10.40
2007,12,29,15,32,7.90
2007,12,29,15,33,9.40
2007,12,29,15,34,9.30
2007,12,29,15,35,15.90
2007,12,29,15,36,10.00
2007,12,29,15,37,12.30
2007,12,29,15,38,7.20
2007,12,29,15,39,18.50
2007,12,29,15,40,14.10
2007,12,29,15,41,14.90
2007,12,29,15,42,16.70
2007,12,29,15,43,14.60
2007,12,29,15,44,12.20
2007,12,29,15,45,12.10
2007,12,29,15,46,14.60
2007,12,29,15,47,10.00
2007,12,29,15,48,11.90
2007,12,29,15,49,13.20
2007,12,29,15,50,12.20
2007,12,29,15,51,13.90
2007,12,29,15,52,10.60
2007,12,29,15,53,9.50
2007,12,29,15,54,6.80
2007,12,29,15,55,6.70
2007,12,29,15,56,11.60
2007,12,29,15,57,10.70
2007,12,29,15,58,9.40
2007,12,29,15,59,16.10
2007,12,29,16,00,15.40
2007,12,29,16,01,16.50
2007,12,29,16,02,9.60
2007,12,29,16,03,10.70
2007,12,29,16,04,13.50
2007,12,29,16,05,9.40
2007,12,29,16,06,14.60
2007,12,29,16,07,12.80
2007,12,29,16,08,10.90
2007,12,29,16,09,14.20
2007,12,29,16,10,10.20
2007,12,29,16,11,5.70
2007,12,29,16,12,5.40
2007,12,29,16,13,10.50
2007,12,29,16,14,8.50
2007,12,29,16,15,7.40
2007,12,29,16,16,11.00
2007,12,29,16,17,13.30
2007,12,29,16,18,12.40
2007,12,29,16,19,16.00
2007,12,29,16,20,14.60
2007,12,29,16,21,9.40
2007,12,29,16,22,11.30
2007,12,29,16,23,11.20
2007,12,29,16,24,13.20
2007,12,29,16,25,10.90
2007,12,29,16,26,14.80
2007,12,29,16,27,19.10
2007,12,29,16,28,12.60
2007,12,29,16,29,13.30
2007,12,29,16,30,15.30
2007,12,29,16,31,16.70
2007,12,29,16,32,6.90
2007,12,29,16,33,11.30
2007,12,29,16,34,10.60
2007,12,29,16,35,16.50
2007,12,29,16,36,8.50
2007,12,29,16,37,8.40
2007,12,29,16,38,12.60
2007,12,29,16,39,15.40
2007,12,29,16,40,11.80
2007,12,29,16,41,14.30
2007,12,29,16,42,13.60
2007,12,29,16,43,20.40
2007,12,29,16,44,15.50
2007,12,29,16,45,8.50
2007,12,29,16,46,10.50
2007,12,29,16,47,15.00
2007,12,29,16,48,9.70
2007,12,29,16,49,9.40
2007,12,29,16,50,10.90
2007,12,29,16,51,9.20
2007,12,29,16,52,10.50
2007,12,29,16,53,8.10
2007,12,29,16,54,9.30
2007,12,29,16,55,5.50
2007,12,29,16,56,2.90
2007,12,29,16,57,7.80
2007,12,29,16,58,6.20
2007,12,29,16,59,5.30
2007,12,29,17,00,5.50
2007,12,29,17,01,6.00
2007,12,29,17,02,9.00
2007,12,29,17,03,6.60
2007,12,29,17,04,10.30
2007,12,29,17,05,16.50
2007,12,29,17,06,14.90
2007,12,29,17,07,11.70
2007,12,29,17,08,12.90
2007,12,29,17,09,10.20
2007,12,29,17,10,12.40
2007,12,29,17,11,11.60
2007,12,29,17,12,15.60
2007,12,29,17,13,10.00
2007,12,29,17,14,8.20
2007,12,29,17,15,14.60
2007,12,29,17,16,17.00
2007,12,29,17,17,9.30
2007,12,29,17,18,15.10
2007,12,29,17,19,12.30
2007,12,29,17,20,9.30
2007,12,29,17,21,14.40
2007,12,29,17,22,12.10
2007,12,29,17,23,11.10
2007,12,29,17,24,6.80
2007,12,29,17,25,16.70
2007,12,29,17,26,16.30
2007,12,29,17,27,8.10
2007,12,29,17,28,5.80
2007,12,29,17,29,4.90
2007,12,29,17,30,12.20
2007,12,29,17,31,10.70
2007,12,29,17,32,9.10
2007,12,29,17,33,8.50
2007,12,29,17,34,4.60
2007,12,29,17,35,5.20
2007,12,29,17,36,4.80
2007,12,29,17,37,1.00
2007,12,29,17,38,2.20
2007,12,29,17,39,6.40
2007,12,29,17,40,3.10
2007,12,29,17,41,7.20
2007,12,29,17,42,2.90
2007,12,29,17,43,3.90
2007,12,29,17,44,3.70
2007,12,29,17,45,2.40
2007,12,29,17,46,2.90
2007,12,29,17,47,1.00
2007,12,29,17,48,2.00
2007,12,29,17,49,5.50
2007,12,29,17,50,8.90
2007,12,29,17,51,4.10
2007,12,29,17,52,1.80
2007,12,29,17,53,2.20
2007,12,29,17,54,3.10
2007,12,29,17,55,5.90
2007,12,29,17,56,5.10
2007,12,29,17,57,16.20
2007,12,29,17,58,5.30
2007,12,29,17,59,3.90
2007,12,29,18,00,2.70
2007,12,29,18,01,2.50
2007,12,29,18,02,4.10